Hourly Data Report for October 03, 2017

All times are specified in Local Standard Time (LST). Add 1 hour to adjust for Daylight Saving Time where and when it is observed.

LYTTON A
BRITISH COLUMBIA

50°13'28.000" N
121°34'55.000" W
224.90 m
1114738
71812
WLY

Download Data

Hourly Data (October 2017)
Hourly Data Report for October 3, 2017
Temp Definition
°C
Dew Point Temp Definition
°C
Rel Hum Definition
%
Wind Dir Definition
10's deg

Wind Spd Definition
km/h
Visibility Definition
km
Stn Press Definition
kPa
Hmdx Definition


Wind Chill Definition


Weather Definition


TIME
00:00 Legend Double Dagger 5.9 -0.4 64 1 13 16.1 100.26     LegendNANA
01:00 Legend Double Dagger 5.6 -0.9 63 1 13 16.1 100.30     LegendNANA
02:00 Legend Double Dagger 5.5 -1.6 60 1 15 16.1 100.34     LegendNANA
03:00 Legend Double Dagger 4.4 -0.7 70 2 13 16.1 100.35     LegendNANA
04:00 Legend Double Dagger 4.4 -1.0 68 1 15 16.1 100.34     LegendNANA
05:00 Legend Double Dagger 4.2 -1.4 67 1 13 16.1 100.34     LegendNANA
06:00 Legend Double Dagger 3.6 -1.2 71 LegendMM 4 16.1 100.36     LegendNANA
07:00 Legend Double Dagger 2.8 -0.7 78 LegendMM 4 16.1 100.42     LegendNANA
08:00 Legend Double Dagger 2.9 0.1 82 LegendMM 4 16.1 100.47     LegendNANA
09:00 Legend Double Dagger 8.9 -1.7 47 1 21 16.1 100.48     LegendNANA
10:00 Legend Double Dagger 11.9 -1.9 38 1 18 14.5 100.36     LegendNANA
11:00 Legend Double Dagger 14.6 -2.9 30 1 11 16.1 100.22     LegendNANA
12:00 Legend Double Dagger 15.7 -3.7 26 35 8 16.1 100.14     LegendNANA
13:00 Legend Double Dagger 17.4 -4.0 23 1 9 16.1 100.04     LegendNANA
14:00 Legend Double Dagger 17.8 -5.5 20 LegendMM 8 16.1 99.94     LegendNANA
15:00 Legend Double Dagger 18.2 -5.7 19 32 5 16.1 99.84     LegendNANA
16:00 Legend Double Dagger 16.5 -5.8 21 LegendMM 5 16.1 99.80     LegendNANA
17:00 Legend Double Dagger 14.4 -5.3 25 1 17 16.1 99.79     LegendNANA
18:00 Legend Double Dagger 12.1 -5.4 29 2 17 16.1 99.83     LegendNANA
19:00 Legend Double Dagger 9.7 -3.0 41 3 5 16.1 99.90     LegendNANA
20:00 Legend Double Dagger 7.8 -2.0 50 1 5 16.1 99.93     LegendNANA
21:00 Legend Double Dagger 7.0 -1.4 55 17 5 16.1 99.98     LegendNANA
22:00 Legend Double Dagger 6.2 -1.2 59 LegendMM 5 16.1 100.02     LegendNANA
23:00 Legend Double Dagger 5.7 -1.3 61 LegendMM 5 16.1 100.04     LegendNANA

Notes on Data Quality.

Legend

  • E = Estimated
  • M = Missing
  • NA = Not Available
  • ‡ = Partner data that is not subject to review by the National Climate Archives
Date modified: